Princeton, MN

2:24 AM CST on November 17, 2019 (GMT -0600)
Princeton Municipal

Weather History for KPNM - September, 2019

Change the Weather History Date:

Monday, September 2, 2019

  Actual Average Record
Temperature  
Mean Temperature 66 °F -  
Max Temperature 75 °F 75 °F 87 °F (2003)
Min Temperature 57 °F 52 °F 6 °F (1998)
Cooling Degree Days 1    
Growing Degree Days 16 (Base 50)    
Moisture  
Dew Point 58 °F    
Average Humidity 81    
Maximum Humidity 100    
Minimum Humidity 50    
Precipitation  
Precipitation 0.01 in - - ()
Sea Level Pressure  
Sea Level Pressure 30.04 in    
Wind  
Wind Speed 4 mph (NE)    
Max Wind Speed 16 mph    
Max Gust Speed 38 mph    
Visibility 9 miles    
Events Fog , Rain , Thunderstorm    
Averages and records for this station are not official NWS values.
T = Trace of Precipitation, MM = Missing Value Source: NWS Daily Summary

Daily Weather History Graph

Daily Weather History Graph

Search for Another Location

Airport or City:

Astronomy

Sep. 02, 2019 Rise Set
Actual Time 6:36 AM CDT 7:50 PM CDT
Civil Twilight 6:06 AM CDT 8:21 PM CDT
Nautical Twilight 5:29 AM CDT 8:57 PM CDT
Astronomical Twilight 4:50 AM CDT 9:36 PM CDT
Moon 10:29 AM CDT (9/2) 10:00 PM CDT (9/2)
Length of Visible Light 14h 15m
Length of Day
13h 13m
Waxing Crescent, 15% of the Moon is Illuminated
Sep 2
Waxing Crescent
Sep 5
First Quarter
Sep 13
Full
Sep 21
Last Quarter
Sep 28
New

Hourly Weather History & Observations

Time (CDT) Temp. Dew Point Humidity Pressure Visibility Wind Dir Wind Speed Gust Speed Precip Events Conditions
12:15 AM 62.6 °F 60.8 °F 94% 30.08 in 7.0 mi Calm Calm - N/A   Mostly Cloudy
12:16 AM 62.6 °F 60.8 °F 94% 30.08 in 7.0 mi Calm Calm - N/A   Mostly Cloudy
12:35 AM 62.6 °F 60.8 °F 94% 30.08 in 5.0 mi Calm Calm - N/A   Scattered Clouds
12:59 AM 60.8 °F 60.8 °F 100% 30.08 in 0.2 mi Calm Calm - N/A Fog Fog
1:17 AM 59.0 °F 57.2 °F 94% 30.08 in 0.2 mi Calm Calm - N/A Fog Fog
1:35 AM 57.2 °F 57.2 °F 100% 30.08 in 0.2 mi Calm Calm - N/A Fog Fog
1:36 AM 57.2 °F 57.2 °F 100% 30.08 in 0.2 mi Calm Calm - N/A Fog Fog
1:55 AM 57.2 °F 55.4 °F 94% 30.09 in 0.2 mi NW 3.5 mph - N/A   Overcast
2:15 AM 59.0 °F 57.2 °F 94% 30.09 in 0.8 mi NW 3.5 mph - N/A   Mostly Cloudy
2:38 AM 59.0 °F 57.2 °F 94% 30.09 in 2.5 mi NW 4.6 mph - N/A   Clear
2:56 AM 60.8 °F 59.0 °F 94% 30.09 in 10.0 mi NNW 4.6 mph - N/A   Clear
3:15 AM 60.8 °F 59.0 °F 94% 30.09 in 10.0 mi NNW 4.6 mph - N/A   Clear
3:16 AM 60.8 °F 59.0 °F 94% 30.09 in 10.0 mi NNW 4.6 mph - N/A   Clear
3:35 AM 60.8 °F 59.0 °F 94% 30.09 in 10.0 mi NNW 5.8 mph - N/A   Clear
3:36 AM 60.8 °F 59.0 °F 94% 30.09 in 10.0 mi NNW 5.8 mph - N/A   Clear
3:59 AM 60.8 °F 59.0 °F 94% 30.09 in 10.0 mi NNW 4.6 mph - N/A   Clear
4:17 AM 60.8 °F 59.0 °F 94% 30.09 in 10.0 mi North 5.8 mph - N/A   Clear
4:35 AM 60.8 °F 59.0 °F 94% 30.09 in 10.0 mi North 4.6 mph - N/A   Clear
4:55 AM 60.8 °F 59.0 °F 94% 30.10 in 10.0 mi North 5.8 mph - N/A   Clear
4:56 AM 60.8 °F 59.0 °F 94% 30.10 in 10.0 mi North 5.8 mph - N/A   Clear
5:15 AM 59.0 °F 57.2 °F 94% 30.10 in 7.0 mi North 3.5 mph - N/A   Clear
5:20 AM 59.0 °F 57.2 °F 94% 30.10 in 7.0 mi North 3.5 mph - N/A   Clear
5:38 AM 59.0 °F 57.2 °F 94% 30.11 in 10.0 mi NNW 3.5 mph - N/A   Clear
5:55 AM 57.2 °F 57.2 °F 100% 30.12 in 10.0 mi NNW 3.5 mph - N/A   Clear
6:15 AM 57.2 °F 57.2 °F 100% 30.13 in 7.0 mi Calm Calm - N/A   Clear
6:16 AM 57.2 °F 57.2 °F 100% 30.13 in 7.0 mi Calm Calm - N/A   Clear
6:35 AM 57.2 °F 55.4 °F 94% 30.13 in 7.0 mi North 3.5 mph - N/A   Clear
6:59 AM 57.2 °F 55.4 °F 94% 30.13 in 7.0 mi North 4.6 mph - N/A   Clear
7:17 AM 57.2 °F 57.2 °F 100% 30.14 in 10.0 mi North 4.6 mph - N/A   Scattered Clouds
7:35 AM 59.0 °F 57.2 °F 94% 30.14 in 10.0 mi NNE 6.9 mph - N/A   Mostly Cloudy
7:36 AM 59.0 °F 57.2 °F 94% 30.14 in 10.0 mi NNE 5.8 mph - N/A   Mostly Cloudy
7:55 AM 59.0 °F 57.2 °F 94% 30.14 in 10.0 mi NNE 9.2 mph - N/A   Overcast
8:15 AM 59.0 °F 57.2 °F 94% 30.15 in 10.0 mi NNE 5.8 mph - N/A   Overcast
8:38 AM 59.0 °F 57.2 °F 94% 30.14 in 10.0 mi NE 6.9 mph - N/A   Overcast
8:56 AM 60.8 °F 57.2 °F 88% 30.14 in 10.0 mi NNE 5.8 mph - N/A   Overcast
9:15 AM 60.8 °F 57.2 °F 88% 30.14 in 10.0 mi NNE 8.1 mph - N/A   Overcast
9:16 AM 60.8 °F 57.2 °F 88% 30.14 in 10.0 mi NNE 8.1 mph - N/A   Overcast
9:35 AM 60.8 °F 57.2 °F 88% 30.14 in 10.0 mi ENE 4.6 mph - N/A   Overcast
9:59 AM 62.6 °F 57.2 °F 82% 30.15 in 10.0 mi Calm Calm - N/A   Overcast
10:17 AM 62.6 °F 57.2 °F 82% 30.15 in 10.0 mi East 8.1 mph - N/A   Overcast
10:35 AM 64.4 °F 57.2 °F 77% 30.14 in 10.0 mi ENE 8.1 mph - N/A   Overcast
10:55 AM 64.4 °F 57.2 °F 77% 30.14 in 10.0 mi NE 6.9 mph - N/A   Overcast
10:56 AM 64.4 °F 57.2 °F 77% 30.14 in 10.0 mi NE 6.9 mph - N/A   Overcast
11:15 AM 64.4 °F 57.2 °F 77% 30.14 in 10.0 mi East 4.6 mph - N/A   Overcast
11:20 AM 64.4 °F 57.2 °F 77% 30.14 in 10.0 mi ENE 4.6 mph - N/A   Overcast
11:38 AM 64.4 °F 59.0 °F 83% 30.14 in 10.0 mi East 4.6 mph - N/A   Overcast
11:56 AM 66.2 °F 57.2 °F 73% 30.13 in 10.0 mi ENE 6.9 mph - N/A   Overcast
12:15 PM 66.2 °F 59.0 °F 78% 30.13 in 10.0 mi ESE 9.2 mph - N/A   Overcast
12:35 PM 66.2 °F 57.2 °F 73% 30.13 in 10.0 mi East 4.6 mph - N/A   Mostly Cloudy
12:36 PM 66.2 °F 57.2 °F 73% 30.13 in 10.0 mi East 3.5 mph - N/A   Mostly Cloudy
12:59 PM 68.0 °F 59.0 °F 73% 30.12 in 10.0 mi East 3.5 mph - N/A   Scattered Clouds
1:17 PM 68.0 °F 59.0 °F 73% 30.11 in 10.0 mi East 5.8 mph - N/A   Scattered Clouds
1:35 PM 69.8 °F 59.0 °F 68% 30.11 in 10.0 mi East 5.8 mph - N/A   Clear
1:55 PM 69.8 °F 59.0 °F 68% 30.10 in 10.0 mi East 6.9 mph - N/A   Clear
1:56 PM 69.8 °F 59.0 °F 68% 30.10 in 10.0 mi East 6.9 mph - N/A   Clear
2:15 PM 71.6 °F 59.0 °F 64% 30.08 in 10.0 mi East 5.8 mph - N/A   Clear
2:38 PM 71.6 °F 57.2 °F 60% 30.07 in 10.0 mi ESE 6.9 mph - N/A   Clear
2:56 PM 73.4 °F 57.2 °F 57% 30.06 in 10.0 mi ENE 4.6 mph - N/A   Clear
3:15 PM 73.4 °F 57.2 °F 57% 30.05 in 10.0 mi Calm Calm - N/A   Clear
3:16 PM 73.4 °F 57.2 °F 57% 30.05 in 10.0 mi ENE 3.5 mph - N/A   Clear
3:35 PM 73.4 °F 57.2 °F 57% 30.04 in 10.0 mi NE 5.8 mph - N/A   Clear
3:36 PM 73.4 °F 57.2 °F 57% 30.04 in 10.0 mi ENE 4.6 mph - N/A   Clear
3:59 PM 75.2 °F 57.2 °F 53% 30.03 in 10.0 mi ENE 8.1 mph - N/A   Clear
4:17 PM 73.4 °F 57.2 °F 57% 30.02 in 10.0 mi ESE 9.2 mph - N/A   Clear
4:35 PM 75.2 °F 55.4 °F 50% 30.02 in 10.0 mi East 8.1 mph - N/A   Clear
4:55 PM 73.4 °F 55.4 °F 53% 30.01 in 10.0 mi East 6.9 mph - N/A   Clear
4:56 PM 73.4 °F 55.4 °F 53% 30.01 in 10.0 mi East 5.8 mph - N/A   Clear
5:15 PM 73.4 °F 57.2 °F 57% 30.00 in 10.0 mi East 3.5 mph - N/A   Scattered Clouds
5:38 PM 73.4 °F 57.2 °F 57% 29.98 in 10.0 mi East 6.9 mph - N/A   Scattered Clouds
5:56 PM 71.6 °F 57.2 °F 60% 29.97 in 10.0 mi East 6.9 mph - N/A   Scattered Clouds
6:15 PM 71.6 °F 57.2 °F 60% 29.96 in 10.0 mi East 5.8 mph - N/A   Scattered Clouds
6:35 PM 71.6 °F 57.2 °F 60% 29.94 in 7.0 mi East 6.9 mph - N/A   Mostly Cloudy
6:36 PM 71.6 °F 57.2 °F 60% 29.94 in 7.0 mi East 8.1 mph - N/A   Mostly Cloudy
6:59 PM 71.6 °F 59.0 °F 64% 29.93 in 10.0 mi East 4.6 mph - N/A   Overcast
7:17 PM 69.8 °F 59.0 °F 68% 29.92 in 10.0 mi East 5.8 mph - N/A   Overcast
7:35 PM 69.8 °F 59.0 °F 68% 29.90 in 10.0 mi East 3.5 mph - N/A   Overcast
7:55 PM 69.8 °F 59.0 °F 68% 29.88 in 10.0 mi East 5.8 mph - N/A   Overcast
7:56 PM 69.8 °F 59.0 °F 68% 29.88 in 10.0 mi East 5.8 mph - N/A   Overcast
8:15 PM 69.8 °F 60.8 °F 73% 29.88 in 10.0 mi East 6.9 mph - N/A   Overcast
8:20 PM 69.8 °F 60.8 °F 73% 29.87 in 10.0 mi East 6.9 mph - N/A   Overcast
8:38 PM 69.8 °F 60.8 °F 73% 29.86 in 10.0 mi East 5.8 mph - N/A   Overcast
8:56 PM 69.8 °F 60.8 °F 73% 29.85 in 10.0 mi East 5.8 mph - N/A   Overcast
9:15 PM 69.8 °F 60.8 °F 73% 29.83 in 10.0 mi East 6.9 mph - N/A Thunderstorm Overcast
9:35 PM 69.8 °F 62.6 °F 78% 29.82 in 10.0 mi East 9.2 mph - N/A Rain , Thunderstorm Light Thunderstorms and Rain
9:55 PM 62.6 °F 59.0 °F 88% 29.92 in 0.8 mi NW 16.1 mph 38.0 mph N/A Thunderstorm Thunderstorm
9:59 PM 60.8 °F 59.0 °F 94% 29.92 in 1.2 mi WNW 8.1 mph 26.5 mph N/A Thunderstorm Overcast
10:15 PM 60.8 °F 60.8 °F 100% 29.92 in 5.0 mi WNW 6.9 mph - 0.01 in Thunderstorm Thunderstorm
10:16 PM 60.8 °F 60.8 °F 100% 29.90 in 5.0 mi NW 9.2 mph - 0.01 in Rain , Thunderstorm Heavy Thunderstorms and Rain
10:35 PM 60.8 °F 60.8 °F 100% 29.85 in 10.0 mi NE 10.4 mph 26.5 mph 0.01 in Rain Rain
10:59 PM 60.8 °F 59.0 °F 94% 29.85 in 10.0 mi East 10.4 mph 16.1 mph N/A   Scattered Clouds
11:17 PM 62.6 °F 59.0 °F 88% 29.83 in 10.0 mi East 6.9 mph - N/A   Scattered Clouds
11:35 PM 60.8 °F 59.0 °F 94% 29.83 in 10.0 mi SE 8.1 mph - N/A   Mostly Cloudy
11:36 PM 60.8 °F 59.0 °F 94% 29.83 in 10.0 mi SE 8.1 mph - N/A   Mostly Cloudy
11:55 PM 60.8 °F 59.0 °F 94% 29.82 in 10.0 mi ESE 11.5 mph 17.3 mph N/A   Scattered Clouds